ONEWEB-0351, 49215

Orbit data source: Space-Track

ONEWEB-0351, 49215 is a payload satellite owned by One Web (NAA) (UK) in LEO that was launched on Tue, 14 Sep 2021 UTC via a SOYUZ-2-1B launch vehicle from the Tyuratam Missile And Space Complex (TTMTR). Payload-class satellites include a variety of spacecraft equipped with specific instruments for various scientific and technological missions. These include communications satellites like Starlink; space stations such as the ISS; scientific satellites like the Hubble; Earth observation satellites from companies like Planet Labs, Umbra, and HawkEye 360; GPS; miniature CubeSats for education and research; and military/defense satellites.

Loading next visibility...
Identifier
49215, 2021-083AF
Orbit
LEO
Country
Flag of UKUK
Related business
Manufacturer
One Web
Mission
Operational Commercial Communications
Bus & Motor
ARROW, Unknown motor
Mass
148 kg wet, ~140 kg dry
Launch date (UTC)
2021-09-14 (4 years ago)
Launch vehicle
SOYUZ-2-1B
Launch site
Tyuratam Missile And Space Complex (TTMTR)
Object type
Payload
Rocket body
Debris
Shape & HBR
Trap Box + 2 Pan, 2.5 m
Radar Cross Section
2.032 m², Large (>1 m²)

Expand to show TLE details & history
Last TLE update: 14 hours ago

TLE from 14 hours ago
0 ONEWEB-0351
1 49215U 21083AF  25250.23182026  .00000017  00000-0  93638-5 0  9995
2 49215  87.9293 330.8385 0001076 114.9438 245.1808 13.20771896199422
Epoch: 2025-09-07T05:33Z
TLE epoch observation values (Epoch: 2025-09-07T05:33:49.27Z)
Latitude
0.00006°
Longitude
-99.17105°
Altitude
1,185.018 km
Speed
7.261 km/s
True Right ascension
22h 03m 21s
True Declination
0° 00' 00"
Sunlit
Object was in full shadow at epoch
Visualization orbit readout
Latitude
Unknown
Longitude
Unknown
Altitude
Unknown
Speed
Unknown
Apparent Right ascension
Unknown
Apparent Declination
Unknown
Sunlit
N/A
Visualization observer readout
Local Sidereal Time
11:40:06
Azimuth
Unknown
Elevation
Unknown
Doppler factor
Unknown
Orbital elements
Apogee altitude
1,179.69 km
Perigee altitude
1,178.064 km
Semi-major axis
7,557.014 km
Eccentricity
0.00011
Inclination
87.9293°
RAAN
330.8385°
Arg. of periapsis
114.9438°
True anomaly
245.16961°
Mean anomaly
245.1808°
Eccentric anomaly
245.1752°
Mean motion
3.30383 °/min
Orbital period
108.96 mins
BSTAR
0.0000093638
Loading maneuver chart data...
Computing Atmospheric mass density...
Loading historical data...
Loading historical data...
Loading historical data...
Loading historical data...
Loading historical data...
Loading historical data...
Loading historical data...

Documentation

Showing up to 5 results
|